| time (UTC) | temp C | wind direction | speed KPH | gust KPH | rain 1hr cm | rain 24hr cm | rain mn cm | humidity % | barometer mb |
| 20260506015339 | 21 | 207 | 1.6 | 1.6 | 0.00 | 0.00 | 0.00 | 58 | 1005.4 |
| 20260506014835 | 21 | 194 | 1.6 | 1.6 | 0.00 | 0.00 | 0.00 | 57 | 1005.3 |
| 20260506014332 | 21 | 209 | 8.0 | 11.3 | 0.00 | 0.00 | 0.00 | 57 | 1005.5 |
| 20260506013829 | 21 | 211 | 4.8 | 8.0 | 0.00 | 0.00 | 0.00 | 56 | 1005.2 |
| 20260506013326 | 21 | 225 | 3.2 | 4.8 | 0.00 | 0.00 | 0.00 | 56 | 1005.1 |
| 20260506012822 | 21 | 221 | 1.6 | 3.2 | 0.00 | 0.00 | 0.00 | 56 | 1005.0 |
| 20260506012320 | 21 | 205 | 4.8 | 4.8 | 0.00 | 0.00 | 0.00 | 55 | 1005.2 |
| 20260506011817 | 21 | 294 | 1.6 | 3.2 | 0.00 | 0.00 | 0.00 | 55 | 1005.1 |
| 20260506011313 | 21 | 211 | 0.0 | 0.0 | 0.00 | 0.00 | 0.00 | 54 | 1004.9 |
| 20260506010811 | 21 | 250 | 3.2 | 8.0 | 0.00 | 0.00 | 0.00 | 54 | 1004.5 |
| 20260506010309 | 22 | 195 | 4.8 | 4.8 | 0.00 | 0.00 | 0.00 | 53 | 1004.6 |
| 20260506005806 | 22 | 196 | 14.5 | 17.7 | 0.00 | 0.00 | 0.00 | 52 | 1004.2 |
| 20260506005305 | 21 | 23 | 4.8 | 8.0 | 0.00 | 0.00 | 0.00 | 54 | 1004.1 |
| 20260506004758 | 21 | 229 | 4.8 | 4.8 | 0.00 | 0.00 | 0.00 | 54 | 1004.0 |
| 20260506004256 | 21 | 146 | 3.2 | 4.8 | 0.00 | 0.00 | 0.00 | 55 | 1004.0 |
| 20260506003752 | 22 | 195 | 1.6 | 1.6 | 0.00 | 0.00 | 0.00 | 52 | 1003.6 |
| 20260506003249 | 22 | 236 | 8.0 | 9.7 | 0.00 | 0.00 | 0.00 | 51 | 1003.3 |
| 20260506002745 | 22 | 201 | 3.2 | 4.8 | 0.00 | 0.00 | 0.00 | 52 | 1003.6 |
| 20260506002241 | 22 | 168 | 8.0 | 12.9 | 0.00 | 0.00 | 0.00 | 53 | 1003.5 |
| 20260506001737 | 22 | 184 | 1.6 | 1.6 | 0.00 | 0.00 | 0.00 | 54 | 1003.4 |
| 20260506001235 | 22 | 202 | 6.4 | 9.7 | 0.00 | 0.00 | 0.00 | 53 | 1003.3 |
| 20260506000731 | 22 | 193 | 0.0 | 0.0 | 0.00 | 0.00 | 0.00 | 54 | 1003.1 |
| 20260506000229 | 22 | 235 | 3.2 | 3.2 | 0.00 | 0.00 | 0.00 | 53 | 1003.1 |
| 20260505235726 | 22 | 128 | 1.6 | 3.2 | 0.00 | 0.00 | 0.00 | 54 | 1003.0 |
| 20260505235224 | 22 | 209 | 3.2 | 3.2 | 0.00 | 0.00 | 0.00 | 53 | 1002.7 |
| 20260505234720 | 23 | 193 | 1.6 | 1.6 | 0.00 | 0.00 | 0.00 | 53 | 1002.6 |
| 20260505234218 | 23 | 205 | 0.0 | 1.6 | 0.00 | 0.00 | 0.00 | 52 | 1002.6 |
| 20260505233714 | 23 | 185 | 3.2 | 3.2 | 0.00 | 0.00 | 0.00 | 52 | 1002.5 |
| 20260505233212 | 23 | 209 | 0.0 | 1.6 | 0.00 | 0.00 | 0.00 | 52 | 1002.2 |
| 20260505232709 | 23 | 162 | 6.4 | 9.7 | 0.00 | 0.00 | 0.00 | 52 | 1002.4 |
| 20260505232206 | 23 | 212 | 3.2 | 4.8 | 0.00 | 0.00 | 0.00 | 51 | 1002.4 |
| 20260505231703 | 23 | 211 | 3.2 | 4.8 | 0.00 | 0.00 | 0.00 | 51 | 1002.6 |
| 20260505231202 | 24 | 180 | 1.6 | 3.2 | 0.00 | 0.00 | 0.00 | 48 | 1002.3 |
| 20260505230700 | 24 | 211 | 11.3 | 24.1 | 0.00 | 0.00 | 0.00 | 46 | 1001.8 |
| 20260505230156 | 25 | 193 | 3.2 | 4.8 | 0.00 | 0.00 | 0.00 | 47 | 1002.2 |
| 20260505225652 | 25 | 212 | 6.4 | 11.3 | 0.00 | 0.00 | 0.00 | 47 | 1002.2 |
| 20260505225149 | 25 | 247 | 11.3 | 14.5 | 0.00 | 0.00 | 0.00 | 44 | 1002.1 |
| 20260505224645 | 25 | 192 | 3.2 | 4.8 | 0.00 | 0.00 | 0.00 | 46 | 1001.9 |
| 20260505224143 | 25 | 196 | 4.8 | 4.8 | 0.00 | 0.00 | 0.00 | 47 | 1001.9 |
| 20260505223640 | 25 | 180 | 6.4 | 9.7 | 0.00 | 0.00 | 0.00 | 47 | 1001.6 |
| 20260505223136 | 25 | 128 | 3.2 | 3.2 | 0.00 | 0.00 | 0.00 | 47 | 1001.8 |
| 20260505222632 | 25 | 206 | 1.6 | 1.6 | 0.00 | 0.00 | 0.00 | 46 | 1001.7 |
| 20260505222128 | 25 | 105 | 4.8 | 9.7 | 0.00 | 0.00 | 0.00 | 45 | 1001.5 |
| 20260505221626 | 26 | 235 | 9.7 | 11.3 | 0.00 | 0.00 | 0.00 | 45 | 1001.3 |
| 20260505221122 | 26 | 127 | 6.4 | 9.7 | 0.00 | 0.00 | 0.00 | 43 | 1001.3 |
| 20260505220620 | 26 | 229 | 8.0 | 11.3 | 0.00 | 0.00 | 0.00 | 43 | 1001.3 |
| 20260505220117 | 26 | 213 | 4.8 | 4.8 | 0.00 | 0.00 | 0.00 | 42 | 1001.1 |
| 20260505215615 | 27 | 205 | 4.8 | 8.0 | 0.00 | 0.00 | 0.00 | 40 | 1000.9 |
| 20260505215113 | 27 | 289 | 4.8 | 4.8 | 0.00 | 0.00 | 0.00 | 40 | 1000.9 |
| 20260505214611 | 26 | 182 | 4.8 | 4.8 | 0.00 | 0.00 | 0.00 | 40 | 1000.7 |
| 20260505214108 | 27 | 236 | 1.6 | 3.2 | 0.00 | 0.00 | 0.00 | 41 | 1001.0 |
| 20260505213605 | 27 | 154 | 1.6 | 3.2 | 0.00 | 0.00 | 0.00 | 42 | 1000.7 |
| 20260505213102 | 27 | 235 | 4.8 | 14.5 | 0.00 | 0.00 | 0.00 | 40 | 1000.7 |
| 20260505212558 | 27 | 209 | 1.6 | 1.6 | 0.00 | 0.00 | 0.00 | 41 | 1000.8 |
| 20260505212056 | 27 | 217 | 0.0 | 1.6 | 0.00 | 0.00 | 0.00 | 40 | 1000.6 |
| 20260505211552 | 28 | 235 | 6.4 | 8.0 | 0.00 | 0.00 | 0.00 | 39 | 1000.7 |
| 20260505211049 | 28 | 182 | 3.2 | 4.8 | 0.00 | 0.00 | 0.00 | 37 | 1000.6 |
| 20260505210545 | 28 | 232 | 4.8 | 8.0 | 0.00 | 0.00 | 0.00 | 37 | 1000.7 |
| 20260505210043 | 27 | 207 | 1.6 | 4.8 | 0.00 | 0.00 | 0.00 | 38 | 1000.8 |
| 20260505205541 | 28 | 244 | 4.8 | 4.8 | 0.00 | 0.00 | 0.00 | 38 | 1000.4 |
| 20260505205038 | 28 | 246 | 11.3 | 16.1 | 0.00 | 0.00 | 0.00 | 37 | 1000.4 |
| 20260505204535 | 28 | 228 | 3.2 | 8.0 | 0.00 | 0.00 | 0.00 | 38 | 1000.2 |
| 20260505204032 | 27 | 222 | 3.2 | 3.2 | 0.00 | 0.00 | 0.00 | 38 | 1000.7 |
| 20260505203529 | 28 | 189 | 4.8 | 11.3 | 0.00 | 0.00 | 0.00 | 38 | 1000.6 |
| 20260505203026 | 28 | 241 | 11.3 | 12.9 | 0.00 | 0.00 | 0.00 | 37 | 1000.6 |
| 20260505202522 | 28 | 217 | 1.6 | 1.6 | 0.00 | 0.00 | 0.00 | 38 | 1000.9 |
| 20260505202018 | 28 | 232 | 8.0 | 16.1 | 0.00 | 0.00 | 0.00 | 37 | 1000.8 |
| 20260505201515 | 28 | 168 | 6.4 | 11.3 | 0.00 | 0.00 | 0.00 | 38 | 1000.7 |
| 20260505201013 | 28 | 285 | 11.3 | 16.1 | 0.00 | 0.00 | 0.00 | 38 | 1000.9 |
| 20260505200510 | 28 | 217 | 6.4 | 8.0 | 0.00 | 0.00 | 0.00 | 38 | 1000.8 |
| 20260505200007 | 29 | 147 | 3.2 | 4.8 | 0.00 | 0.00 | 0.00 | 39 | 1001.1 |
| 20260505195503 | 29 | 122 | 1.6 | 3.2 | 0.00 | 0.00 | 0.00 | 39 | 1000.7 |
| 20260505195000 | 28 | 255 | 12.9 | 16.1 | 0.00 | 0.00 | 0.00 | 39 | 1000.9 |
| 20260505194458 | 28 | 132 | 6.4 | 9.7 | 0.00 | 0.00 | 0.00 | 39 | 1000.8 |
| 20260505193958 | 28 | 225 | 4.8 | 8.0 | 0.00 | 0.00 | 0.00 | 40 | 1000.8 |
| 20260505193456 | 28 | 196 | 1.6 | 3.2 | 0.00 | 0.00 | 0.00 | 41 | 1001.0 |
| 20260505192953 | 28 | 115 | 8.0 | 11.3 | 0.00 | 0.00 | 0.00 | 40 | 1000.9 |
| 20260505192451 | 27 | 212 | 3.2 | 3.2 | 0.00 | 0.00 | 0.00 | 41 | 1001.0 |
| 20260505191948 | 28 | 178 | 3.2 | 3.2 | 0.00 | 0.00 | 0.00 | 40 | 1001.1 |
| 20260505191447 | 28 | 118 | 4.8 | 8.0 | 0.00 | 0.00 | 0.00 | 40 | 1001.3 |
| 20260505190943 | 28 | 239 | 4.8 | 8.0 | 0.00 | 0.00 | 0.00 | 41 | 1001.3 |
| 20260505190438 | 28 | 298 | 4.8 | 4.8 | 0.00 | 0.00 | 0.00 | 40 | 1001.5 |
| 20260505185934 | 28 | 227 | 3.2 | 3.2 | 0.00 | 0.00 | 0.00 | 39 | 1001.6 |
| 20260505185432 | 29 | 158 | 4.8 | 8.0 | 0.00 | 0.00 | 0.00 | 38 | 1001.6 |
| 20260505184928 | 28 | 240 | 4.8 | 8.0 | 0.00 | 0.00 | 0.00 | 37 | 1001.8 |
| 20260505184425 | 28 | 212 | 8.0 | 12.9 | 0.00 | 0.00 | 0.00 | 36 | 1001.8 |
| 20260505183922 | 28 | 225 | 12.9 | 20.9 | 0.00 | 0.00 | 0.00 | 37 | 1001.6 |
| 20260505183419 | 29 | 161 | 4.8 | 4.8 | 0.00 | 0.00 | 0.00 | 38 | 1001.7 |
| 20260505182915 | 28 | 225 | 11.3 | 16.1 | 0.00 | 0.00 | 0.00 | 38 | 1002.0 |
| 20260505182412 | 28 | 165 | 6.4 | 8.0 | 0.00 | 0.00 | 0.00 | 39 | 1001.9 |
| 20260505181908 | 28 | 263 | 6.4 | 9.7 | 0.00 | 0.00 | 0.00 | 39 | 1002.0 |
| 20260505181406 | 28 | 195 | 9.7 | 14.5 | 0.00 | 0.00 | 0.00 | 38 | 1002.2 |
| 20260505180903 | 28 | 189 | 6.4 | 9.7 | 0.00 | 0.00 | 0.00 | 40 | 1002.6 |
| 20260505180359 | 28 | 249 | 11.3 | 16.1 | 0.00 | 0.00 | 0.00 | 40 | 1002.6 |
| 20260505175856 | 28 | 77 | 1.6 | 3.2 | 0.00 | 0.00 | 0.00 | 41 | 1002.5 |
| 20260505175352 | 28 | 261 | 9.7 | 14.5 | 0.00 | 0.00 | 0.00 | 39 | 1002.7 |
| 20260505174848 | 27 | 229 | 1.6 | 3.2 | 0.00 | 0.00 | 0.00 | 41 | 1002.3 |
| 20260505174346 | 28 | 224 | 4.8 | 8.0 | 0.00 | 0.00 | 0.00 | 41 | 1002.3 |
| 20260505173842 | 27 | 192 | 6.4 | 11.3 | 0.00 | 0.00 | 0.00 | 41 | 1002.6 |
| 20260505173339 | 28 | 202 | 6.4 | 9.7 | 0.00 | 0.00 | 0.00 | 40 | 1002.8 |
| 20260505172836 | 28 | 302 | 6.4 | 8.0 | 0.00 | 0.00 | 0.00 | 40 | 1002.8 |
| 20260505172334 | 27 | 191 | 3.2 | 3.2 | 0.00 | 0.00 | 0.00 | 41 | 1002.9 |
| 20260505171833 | 27 | 205 | 3.2 | 3.2 | 0.00 | 0.00 | 0.00 | 41 | 1003.0 |
| 20260505171330 | 27 | 218 | 4.8 | 4.8 | 0.00 | 0.00 | 0.00 | 43 | 1003.3 |
| 20260505170827 | 27 | 231 | 8.0 | 9.7 | 0.00 | 0.00 | 0.00 | 42 | 1003.3 |
| 20260505170323 | 27 | 245 | 8.0 | 11.3 | 0.00 | 0.00 | 0.00 | 43 | 1003.6 |
| 20260505165819 | 27 | 168 | 6.4 | 9.7 | 0.00 | 0.00 | 0.00 | 43 | 1003.3 |
| 20260505165315 | 27 | 192 | 4.8 | 4.8 | 0.00 | 0.00 | 0.00 | 43 | 1003.4 |
| 20260505164810 | 27 | 220 | 6.4 | 11.3 | 0.00 | 0.00 | 0.00 | 42 | 1003.6 |
| 20260505164308 | 26 | 176 | 1.6 | 1.6 | 0.00 | 0.00 | 0.00 | 46 | 1003.6 |
| 20260505163806 | 26 | 203 | 14.5 | 17.7 | 0.00 | 0.00 | 0.00 | 45 | 1003.8 |
| 20260505163304 | 26 | 217 | 6.4 | 8.0 | 0.00 | 0.00 | 0.00 | 44 | 1003.9 |
| 20260505162802 | 26 | 247 | 9.7 | 11.3 | 0.00 | 0.00 | 0.00 | 47 | 1003.8 |
| 20260505162258 | 26 | 206 | 3.2 | 4.8 | 0.00 | 0.00 | 0.00 | 48 | 1004.0 |
| 20260505161755 | 25 | 204 | 4.8 | 4.8 | 0.00 | 0.00 | 0.00 | 47 | 1004.2 |
| 20260505161253 | 25 | 351 | 4.8 | 8.0 | 0.00 | 0.00 | 0.00 | 47 | 1004.3 |
| 20260505160750 | 25 | 232 | 4.8 | 4.8 | 0.00 | 0.00 | 0.00 | 48 | 1004.4 |
| 20260505160248 | 25 | 207 | 3.2 | 3.2 | 0.00 | 0.00 | 0.00 | 50 | 1004.5 |
| 20260505153227 | 23 | 208 | 3.2 | 3.2 | 0.00 | 0.00 | 0.00 | 52 | 1004.7 |
| 20260505152724 | 23 | 309 | 4.8 | 4.8 | 0.00 | 0.00 | 0.00 | 51 | 1004.9 |
| 20260505152220 | 23 | 241 | 3.2 | 4.8 | 0.00 | 0.00 | 0.00 | 51 | 1004.9 |
| 20260505151714 | 23 | 234 | 6.4 | 9.7 | 0.00 | 0.00 | 0.00 | 53 | 1005.1 |
| 20260505151212 | 22 | 223 | 8.0 | 12.9 | 0.00 | 0.00 | 0.00 | 53 | 1005.4 |
| 20260505150708 | 22 | 199 | 1.6 | 3.2 | 0.00 | 0.00 | 0.00 | 55 | 1005.2 |
| 20260505150206 | 22 | 221 | 4.8 | 8.0 | 0.00 | 0.00 | 0.00 | 55 | 1005.1 |
| 20260505140639 | 19 | 207 | 1.6 | 3.2 | 0.00 | 0.00 | 0.00 | 62 | 1005.4 |
| 20260505140136 | 20 | 219 | 4.8 | 11.3 | 0.00 | 0.00 | 0.00 | 62 | 1005.5 |
| 20260505124549 | 16 | 205 | 0.0 | 1.6 | 0.00 | 0.00 | 0.00 | 69 | 1005.9 |
| 20260505124045 | 16 | 188 | 8.0 | 12.9 | 0.00 | 0.00 | 0.00 | 69 | 1005.4 |
| 20260505123542 | 16 | 279 | 4.8 | 9.7 | 0.00 | 0.00 | 0.00 | 68 | 1005.7 |
| 20260505123038 | 17 | 271 | 8.0 | 12.9 | 0.00 | 0.00 | 0.00 | 67 | 1005.6 |
| 20260505122535 | 17 | 208 | 3.2 | 3.2 | 0.00 | 0.00 | 0.00 | 67 | 1005.6 |
| 20260505122032 | 16 | 215 | 3.2 | 4.8 | 0.00 | 0.00 | 0.00 | 67 | 1005.8 |
| 20260505121529 | 17 | 224 | 1.6 | 4.8 | 0.00 | 0.00 | 0.00 | 67 | 1005.5 |
| 20260505121025 | 17 | 182 | 3.2 | 3.2 | 0.00 | 0.00 | 0.00 | 67 | 1005.7 |
| 20260505120522 | 16 | 189 | 3.2 | 3.2 | 0.00 | 0.00 | 0.00 | 68 | 1005.4 |
| 20260505120017 | 16 | 192 | 3.2 | 4.8 | 0.00 | 0.00 | 0.00 | 69 | 1005.3 |
| 20260505115512 | 16 | 217 | 6.4 | 9.7 | 0.00 | 0.00 | 0.00 | 69 | 1005.2 |
| 20260505115010 | 15 | 227 | 1.6 | 3.2 | 0.00 | 0.00 | 0.00 | 71 | 1005.3 |
| 20260505114507 | 15 | 216 | 3.2 | 3.2 | 0.00 | 0.00 | 0.00 | 71 | 1005.3 |
| 20260505114003 | 15 | 215 | 3.2 | 3.2 | 0.00 | 0.00 | 0.00 | 72 | 1005.4 |
| 20260505113500 | 15 | 197 | 4.8 | 4.8 | 0.00 | 0.00 | 0.00 | 72 | 1005.3 |
| 20260505112955 | 15 | 207 | 1.6 | 3.2 | 0.00 | 0.00 | 0.00 | 72 | 1005.6 |
| 20260505112453 | 15 | 218 | 9.7 | 16.1 | 0.00 | 0.00 | 0.00 | 72 | 1005.4 |
| 20260505111949 | 14 | 198 | 3.2 | 3.2 | 0.00 | 0.00 | 0.00 | 73 | 1005.4 |
| 20260505111443 | 14 | 216 | 4.8 | 4.8 | 0.00 | 0.00 | 0.00 | 74 | 1005.5 |
| 20260505110940 | 13 | 221 | 1.6 | 1.6 | 0.00 | 0.00 | 0.00 | 74 | 1005.3 |
| 20260505110437 | 13 | 227 | 3.2 | 3.2 | 0.00 | 0.00 | 0.00 | 75 | 1005.6 |
| 20260505101909 | 11 | 193 | 0.0 | 0.0 | 0.00 | 0.00 | 0.00 | 79 | 1005.6 |
| 20260505101409 | 11 | 211 | 0.0 | 0.0 | 0.00 | 0.00 | 0.00 | 79 | 1005.4 |
| 20260505100905 | 11 | 202 | 0.0 | 1.6 | 0.00 | 0.00 | 0.00 | 80 | 1005.6 |
| 20260505100401 | 11 | 224 | 3.2 | 3.2 | 0.00 | 0.00 | 0.00 | 81 | 1005.3 |
| 20260505095857 | 11 | 205 | 0.0 | 0.0 | 0.00 | 0.00 | 0.00 | 80 | 1005.5 |
| 20260505095355 | 11 | 216 | 0.0 | 0.0 | 0.00 | 0.00 | 0.00 | 79 | 1005.4 |
| 20260505094850 | 11 | 214 | 0.0 | 0.0 | 0.00 | 0.00 | 0.00 | 80 | 1005.3 |
| 20260505094348 | 11 | 211 | 0.0 | 0.0 | 0.00 | 0.00 | 0.00 | 79 | 1005.8 |
| 20260505093843 | 11 | 208 | 1.6 | 1.6 | 0.00 | 0.00 | 0.00 | 79 | 1005.5 |
| 20260505093341 | 11 | 197 | 0.0 | 0.0 | 0.00 | 0.00 | 0.00 | 79 | 1005.4 |
| 20260505092838 | 11 | 212 | 0.0 | 0.0 | 0.00 | 0.00 | 0.00 | 79 | 1005.2 |
| 20260505092336 | 11 | 189 | 1.6 | 1.6 | 0.00 | 0.00 | 0.00 | 79 | 1005.4 |
| 20260505091833 | 11 | 199 | 1.6 | 1.6 | 0.00 | 0.00 | 0.00 | 79 | 1005.6 |
| 20260505091331 | 11 | 187 | 3.2 | 3.2 | 0.00 | 0.00 | 0.00 | 79 | 1005.3 |
| 20260505090829 | 11 | 191 | 1.6 | 1.6 | 0.00 | 0.00 | 0.00 | 79 | 1005.5 |
| 20260505090327 | 11 | 201 | 3.2 | 3.2 | 0.00 | 0.00 | 0.00 | 80 | 1005.4 |
| 20260505085824 | 11 | 211 | 0.0 | 0.0 | 0.00 | 0.00 | 0.00 | 80 | 1005.4 |
| 20260505085322 | 11 | 211 | 0.0 | 1.6 | 0.00 | 0.00 | 0.00 | 80 | 1005.5 |
| 20260505084819 | 11 | 207 | 0.0 | 1.6 | 0.00 | 0.00 | 0.00 | 79 | 1005.6 |
| 20260505084318 | 11 | 206 | 1.6 | 1.6 | 0.00 | 0.00 | 0.00 | 79 | 1005.7 |
| 20260505083814 | 11 | 218 | 1.6 | 1.6 | 0.00 | 0.00 | 0.00 | 78 | 1005.6 |
| 20260505083311 | 11 | 208 | 0.0 | 0.0 | 0.00 | 0.00 | 0.00 | 78 | 1005.5 |
| 20260505082808 | 11 | 206 | 0.0 | 0.0 | 0.00 | 0.00 | 0.00 | 77 | 1005.8 |
| 20260505082305 | 11 | 202 | 0.0 | 0.0 | 0.00 | 0.00 | 0.00 | 77 | 1005.5 |
| 20260505081800 | 11 | 209 | 1.6 | 1.6 | 0.00 | 0.00 | 0.00 | 76 | 1005.4 |
| 20260505081258 | 11 | 201 | 0.0 | 0.0 | 0.00 | 0.00 | 0.00 | 76 | 1005.6 |
| 20260505080754 | 12 | 198 | 0.0 | 0.0 | 0.00 | 0.00 | 0.00 | 75 | 1005.7 |
| 20260505080250 | 11 | 215 | 0.0 | 0.0 | 0.00 | 0.00 | 0.00 | 75 | 1005.8 |
| 20260505075746 | 11 | 195 | 0.0 | 0.0 | 0.00 | 0.00 | 0.00 | 75 | 1005.9 |
| 20260505075243 | 11 | 208 | 1.6 | 3.2 | 0.00 | 0.00 | 0.00 | 76 | 1005.9 |
| 20260505074740 | 11 | 197 | 0.0 | 0.0 | 0.00 | 0.00 | 0.00 | 75 | 1005.8 |
| 20260505074238 | 12 | 209 | 0.0 | 0.0 | 0.00 | 0.00 | 0.00 | 75 | 1005.7 |
| 20260505073735 | 12 | 217 | 3.2 | 3.2 | 0.00 | 0.00 | 0.00 | 75 | 1005.7 |
| 20260505073233 | 12 | 208 | 0.0 | 1.6 | 0.00 | 0.00 | 0.00 | 75 | 1005.9 |
| 20260505072729 | 12 | 230 | 1.6 | 3.2 | 0.00 | 0.00 | 0.00 | 74 | 1005.8 |
| 20260505072225 | 12 | 248 | 0.0 | 3.2 | 0.00 | 0.00 | 0.00 | 75 | 1005.8 |
| 20260505071721 | 12 | 194 | 0.0 | 0.0 | 0.00 | 0.00 | 0.00 | 75 | 1005.8 |
| 20260505071218 | 11 | 190 | 1.6 | 1.6 | 0.00 | 0.00 | 0.00 | 75 | 1005.9 |
| 20260505070716 | 11 | 184 | 1.6 | 3.2 | 0.00 | 0.00 | 0.00 | 75 | 1005.8 |
| 20260505070212 | 12 | 205 | 1.6 | 1.6 | 0.00 | 0.00 | 0.00 | 75 | 1005.8 |
| 20260505065708 | 11 | 207 | 0.0 | 0.0 | 0.00 | 0.00 | 0.00 | 75 | 1005.8 |
| 20260505065205 | 12 | 202 | 0.0 | 0.0 | 0.00 | 0.00 | 0.00 | 74 | 1005.8 |
| 20260505064702 | 12 | 197 | 0.0 | 0.0 | 0.00 | 0.00 | 0.00 | 74 | 1005.9 |
| 20260505064200 | 12 | 198 | 0.0 | 0.0 | 0.00 | 0.00 | 0.00 | 74 | 1005.9 |
| 20260505063657 | 12 | 211 | 0.0 | 0.0 | 0.00 | 0.00 | 0.00 | 73 | 1005.9 |
| 20260505063153 | 12 | 191 | 1.6 | 1.6 | 0.00 | 0.00 | 0.00 | 72 | 1005.9 |
| 20260505062649 | 12 | 177 | 1.6 | 1.6 | 0.00 | 0.00 | 0.00 | 73 | 1006.0 |
| 20260505062147 | 12 | 207 | 0.0 | 0.0 | 0.00 | 0.00 | 0.00 | 72 | 1006.1 |
| 20260505061644 | 12 | 204 | 1.6 | 1.6 | 0.00 | 0.00 | 0.00 | 72 | 1005.8 |
| 20260505061142 | 12 | 195 | 0.0 | 0.0 | 0.00 | 0.00 | 0.00 | 71 | 1005.9 |
| 20260505060639 | 12 | 205 | 0.0 | 0.0 | 0.00 | 0.00 | 0.00 | 71 | 1005.9 |
| 20260505060136 | 12 | 205 | 0.0 | 0.0 | 0.00 | 0.00 | 0.00 | 71 | 1005.9 |
| 20260505055631 | 12 | 206 | 0.0 | 0.0 | 0.00 | 0.00 | 0.00 | 70 | 1006.0 |
| 20260505055128 | 12 | 209 | 1.6 | 1.6 | 0.00 | 0.00 | 0.00 | 71 | 1006.0 |
| 20260505054625 | 12 | 210 | 1.6 | 1.6 | 0.00 | 0.00 | 0.00 | 70 | 1006.1 |
| 20260505054123 | 12 | 263 | 3.2 | 3.2 | 0.00 | 0.00 | 0.00 | 70 | 1006.1 |
| 20260505053620 | 12 | 186 | 1.6 | 1.6 | 0.00 | 0.00 | 0.00 | 69 | 1006.2 |
| 20260505053116 | 13 | 182 | 1.6 | 1.6 | 0.00 | 0.00 | 0.00 | 69 | 1006.2 |
| 20260505052614 | 13 | 216 | 1.6 | 1.6 | 0.00 | 0.00 | 0.00 | 68 | 1006.1 |
| 20260505052111 | 13 | 193 | 1.6 | 3.2 | 0.00 | 0.00 | 0.00 | 68 | 1006.2 |
| 20260505051608 | 13 | 209 | 1.6 | 1.6 | 0.00 | 0.00 | 0.00 | 67 | 1006.2 |
| 20260505051106 | 13 | 195 | 3.2 | 3.2 | 0.00 | 0.00 | 0.00 | 67 | 1006.2 |
| 20260505050604 | 13 | 217 | 4.8 | 4.8 | 0.00 | 0.00 | 0.00 | 67 | 1006.2 |
| 20260505041531 | 14 | 204 | 3.2 | 4.8 | 0.00 | 0.00 | 0.00 | 62 | 1006.1 |
| 20260505041029 | 14 | 163 | 1.6 | 3.2 | 0.00 | 0.00 | 0.00 | 62 | 1006.4 |
| 20260505040526 | 14 | 192 | 3.2 | 3.2 | 0.00 | 0.00 | 0.00 | 62 | 1006.1 |
| 20260505040023 | 14 | 231 | 8.0 | 9.7 | 0.00 | 0.00 | 0.00 | 61 | 1005.9 |
| 20260505035519 | 14 | 224 | 3.2 | 4.8 | 0.00 | 0.00 | 0.00 | 61 | 1006.1 |
| 20260505035016 | 14 | 159 | 3.2 | 4.8 | 0.00 | 0.00 | 0.00 | 61 | 1006.1 |
| 20260505034513 | 15 | 228 | 1.6 | 3.2 | 0.00 | 0.00 | 0.00 | 60 | 1005.8 |
| 20260505034010 | 15 | 193 | 1.6 | 3.2 | 0.00 | 0.00 | 0.00 | 59 | 1005.9 |
| 20260505033507 | 15 | 216 | 8.0 | 9.7 | 0.00 | 0.00 | 0.00 | 59 | 1005.8 |
| 20260505033005 | 15 | 212 | 8.0 | 11.3 | 0.00 | 0.00 | 0.00 | 59 | 1005.8 |
| 20260505032502 | 15 | 211 | 0.0 | 0.0 | 0.00 | 0.00 | 0.00 | 59 | 1005.9 |
| 20260505031958 | 15 | 218 | 4.8 | 4.8 | 0.00 | 0.00 | 0.00 | 58 | 1005.6 |
| 20260505031455 | 15 | 186 | 3.2 | 3.2 | 0.00 | 0.00 | 0.00 | 58 | 1005.8 |
| 20260505030952 | 15 | 216 | 3.2 | 3.2 | 0.00 | 0.00 | 0.00 | 58 | 1005.7 |
| 20260505030448 | 15 | 197 | 1.6 | 3.2 | 0.00 | 0.00 | 0.00 | 57 | 1005.7 |
| 20260505025943 | 15 | 211 | 4.8 | 8.0 | 0.00 | 0.00 | 0.00 | 57 | 1005.6 |
| 20260505025441 | 15 | 209 | 0.0 | 0.0 | 0.00 | 0.00 | 0.00 | 56 | 1005.9 |
| 20260505024939 | 15 | 183 | 1.6 | 3.2 | 0.00 | 0.00 | 0.00 | 57 | 1005.9 |
| 20260505024437 | 16 | 201 | 1.6 | 3.2 | 0.00 | 0.00 | 0.00 | 56 | 1005.9 |
| 20260505023934 | 16 | 192 | 1.6 | 1.6 | 0.00 | 0.00 | 0.00 | 55 | 1005.8 |
| 20260505023431 | 16 | 201 | 3.2 | 3.2 | 0.00 | 0.00 | 0.00 | 55 | 1005.7 |
| 20260505022928 | 16 | 200 | 0.0 | 1.6 | 0.00 | 0.00 | 0.00 | 55 | 1005.7 |
| 20260505022426 | 16 | 215 | 4.8 | 4.8 | 0.00 | 0.00 | 0.00 | 54 | 1005.6 |
| 20260505021922 | 16 | 209 | 4.8 | 8.0 | 0.00 | 0.00 | 0.00 | 54 | 1005.7 |
| 20260505021419 | 16 | 179 | 1.6 | 3.2 | 0.00 | 0.00 | 0.00 | 54 | 1005.7 |
| 20260505020914 | 16 | 191 | 3.2 | 4.8 | 0.00 | 0.00 | 0.00 | 54 | 1005.8 |
| 20260505020410 | 16 | 222 | 1.6 | 1.6 | 0.00 | 0.00 | 0.00 | 53 | 1005.8 |
| 20260505015907 | 16 | 222 | 1.6 | 3.2 | 0.00 | 0.00 | 0.00 | 54 | 1005.6 |